Regional Weather Roundup
Issued by NWS Wakefield, VA

Home | Current Version | Previous Version | Text Only | Print | Product List | Glossary Off
Versions: 1 2 3 4 5 6 7 8 9 10 11 12 13 14 15 16 17 18 19 20 21 22 23 24 25 26 27

000
ASUS41 KAKQ 141715
RWRAKQ

REGIONAL WEATHER ROUNDUP
NATIONAL WEATHER SERVICE WAKEFIELD VA
1200 PM EST THU DEC 14 2017

Note: "fair" indicates few or no clouds below 12,000 feet with no
significant weather and/or obstructions to visibility. * = Denotes
station may not report precipitation (e.g., rain,snow,etc.),
thunder or fog.

VAZ042-051-052>054-056-141800-
NORTHERN VIRGINIA

CITY           SKY/WX    TMP DP  RH WIND       PRES   REMARKS
WASH NATIONAL  PTSUNNY   41  20  43 NW17G30   29.88R
DULLES         PTSUNNY   39  18  42 NW22G28   29.87R
FORT BELVOIR   CLOUDY    39  18  41 NW17      29.88R
QUANTICO       NOT AVBL
FREDERICKSBRG* MOSUNNY   46  24  42 NW14      29.85R
STAFFORD*      MOSUNNY   43  20  39 NW17      29.90R
WARRENTON      CLOUDY    44  18  36 N13G20    29.86R
CULPEPER*      CLOUDY    45  18  35 N14       29.87R
MANASSAS*      CLOUDY    39  20  46 N16G23    29.89R
LEESBURG*      CLOUDY    36  21  55 NW13G21   29.89S
WINCHESTER     PTSUNNY   34  18  51 NW16      29.86S WCI  23
FRONT ROYAL*   PTSUNNY   36  19  51 MISG      29.85R
LURAY*         CLOUDY    39  19  45 NW8       29.84S
$$

VAZ048-049-060>072-079>083-141800-
CENTRAL AND SOUTH CENTRAL VIRGINIA

CITY           SKY/WX    TMP DP  RH WIND       PRES   REMARKS
RICHMOND       PTSUNNY   51  23  33 N13       29.81F
CHESTERFIELD*  NOT AVBL
PETERSBURG*    CLOUDY    52  21  30 NW13      29.83R
HANOVER        SUNNY     49  22  34 NW12G18   29.83F
TAPPAHANNOCK*  SUNNY     47  24  40 N9G21     29.84S
QUINTON*       FAIR      49  24  38 NW12      29.81F
CHARLOTTSVILLE SUNNY     46  21  37 N8G18     29.83R
GORDONSVILLE*  MOSUNNY   45  21  38 NW12      29.83S
ORANGE*        SUNNY     43  21  42 NW7       29.84R
LOUISA*        MOSUNNY   46  20  35 NW12      29.88R
BUMPASS*       FAIR      46  17  30 NW8       29.84R
FARMVILLE*     CLOUDY    50  28  41 NW7       29.81R
CREWE*         FAIR      51  26  37 NW12      29.81R
FORT PICKETT*  NOT AVBL
CHASE CITY*    FAIR      51  27  39 W8        29.82R
CLARKSVILLE*   FAIR      52  27  37 W7        29.83R
SOUTH HILL*    SUNNY     52  28  39 W8        29.88R
LAWRENCEVILLE* FAIR      52  24  34 NW9       29.82R
EMPORIA*       SUNNY     52  27  37 SW8       29.84R
$$

VAZ088>098-141800-
SOUTHEAST VIRGINIA

CITY           SKY/WX    TMP DP  RH WIND       PRES   REMARKS
NORFOLK        SUNNY     53  26  35 NW9       29.80R
VIRGINIA BEACH MOSUNNY   54  24  31 NW14G21   29.79S
NORFOLK NAVAL  MOSUNNY   53  27  36 W15       29.82S
WEST POINT*    SUNNY    N/A N/A N/A N12G17    29.84S
SALUDA*        FAIR      46  27  47 NW8G21    29.82R
NEWPORT NEWS   SUNNY     52  26  36 NW8       29.82R
LANGLEY AFB    MOSUNNY   51  26  38 W13       29.81R
FORT EUSTIS    SUNNY     51  28  40 NW7       29.80R
WILLIAMSBURG*  SUNNY     52  27  37 NW12      29.82F
HR EXEC AP*    FAIR      54  27  35 W10G18    29.81S
FRANKLIN*      SUNNY     54  27  35 NW14G20   29.82S
US460-WAKEFLD  SUNNY     52  26  36 NW10G16   29.81S
$$

VAZ020-022-025-037-045-141800-
WEST CENTRAL AND SOUTHWEST VIRGINIA

CITY           SKY/WX    TMP DP  RH WIND       PRES   REMARKS
STAUNTON*      MOSUNNY   37  17  45 W6        29.85S
WAYNESBORO*    SUNNY     40  19  44 NW12G17   29.81F
HOT SPRINGS VA MOSUNNY   27  16  64 NW16G22   29.72F WCI  15
LYNCHBURG      CLOUDY    45  21  38 W8        29.83R
DANVILLE       SUNNY     51  26  37 NW9       29.85R
SOUTH BOSTON*  FAIR      53  24  32 W7        29.83R
MARTINSVILLE   SUNNY     49  24  37 N7        29.87R
ROANOKE        MOSUNNY   43  22  43 NW20G25   29.87R
BLACKSBURG     CLOUDY    37  26  63 NW10      29.87S
DUBLIN*        CLOUDY    39  24  53 NW10      29.85S
MARION*        CLOUDY    38  22  51 W12       29.86S
HILLSVILLE*    CLOUDY    38  24  58 W13       29.81S
RICHLANDS*     CLOUDY    33  25  73 N3        29.86S
WISE*          CLOUDY    34  27  75 NW3       29.87F
ABINGDON*      CLOUDY    40  26  59 N5        29.88S
$$

MDZ021>025-VAZ099-100-141800-
SOUTHERN MARYLAND AND THE DELMARVA PENINSULA

CITY           SKY/WX    TMP DP  RH WIND       PRES   REMARKS
PATUXENT RIVER MOSUNNY   45  24  43 NW25G31   29.83R
BAY BRIDGE APT MOSUNNY   39  25  56 NW18G26   29.86R
LEONARDTOWN    SUNNY     45  21  39 NW12G22   29.84R
DOVER          SUNNY     38  26  62 W17G32    29.82R
GEORGETOWN     CLOUDY    41  26  55 NW12G26   29.81R
EASTON         MOSUNNY   41  25  52 N20G28    29.88R
CAMBRIDGE      CLOUDY    43  27  52 NW17G24   29.83R
SALISBURY      MOSUNNY   45  26  47 NW24G36   29.80R
OCEAN CITY     SUNNY     45  26  47 NW18G36   29.80R
WALLOPS ISLAND SUNNY     48  25  40 NW16G25   29.79R
ACCOMACK*      SUNNY     46  28  48 NW12G24   29.81R
$$

NCZ012>017-030>032-141800-
NORTH CENTRAL AND EASTERN NORTH CAROLINA

CITY           SKY/WX    TMP DP  RH WIND       PRES   REMARKS
ROANOKE RAPIDS FAIR      54  28  37 W12G18    29.83F
RALEIGH        MOSUNNY   53  24  32 W12G17    29.86S
ELIZABETH CITY SUNNY     55  32  41 W14       29.81F
AHOSKIE*       SUNNY     53  26  36 W5        29.83S
EDENTON*       SUNNY     54  29  38 W7        29.84S
CURRITUCK*     SUNNY     53  28  37 W7        29.82S
KILL DEVIL HLS SUNNY     47  28  47 W10G20    29.81F
MANTEO         SUNNY     51  30  45 NW8       29.83F
CAPE HATTERAS  SUNNY     51  36  56 W9G18     29.84F
TARBORO*       NOT AVBL
GOLDSBORO      SUNNY     56  26  31 W13       29.84F
WASHINGTON     SUNNY     53  26  34 W9        29.85S
GREENVILLE     SUNNY     52  27  37 W10G16    29.88S
NEW BERN       SUNNY     54  29  38 W8        29.87S
WILMINGTON     SUNNY     56  30  37 W9        29.88F
$$

VAZ048-141800-
ELSEWHERE

CITY           SKY/WX    TMP DP  RH WIND       PRES   REMARKS
HARRISBURG PA  MOSUNNY   31  17  56 NW17G32   29.83R WCI  19
BALTIMORE      MOSUNNY   39  19  44 NW16G28   29.86R
ANNAPOLIS      CLOUDY    38  26  62 NW15G22   29.86R
ANDREWS AFB    CLOUDY    38  17  43 NW21      29.91R
PHILADELPHIA   MOSUNNY   33  22  63 W13       29.81R WCI  24
HENDERSON NC   SUNNY     50  23  35 W13G18    29.84S
GREENSBORO     MOSUNNY   50  24  36 W12       29.84S
ROCKY MOUNT    SUNNY     53  26  35 W12       29.85F
$$

VAZ100-141800-
MARINE

STATION/POSITION TIME  TEMP    WIND        PRES    WAVE   SWELL
                       AIR SEA DIR/SP/G            HT/PER HT/PER
                 (UTC) (F)     (DEG/KT/KT) (MB)    (FT/S) (FT/S)
BRANDYWINE LGT   1642   39     320/ 25/ 30 1009.1R
CAPE MAY NJ      1642   40 38  320/ 24/ 31 1008.3R
LEWES DE         1642   40 44  330/ 27/ 33 1008.8R
15NM E FENWICK I 1650   45 51  290/ 27/ 31 1007.7R   6/ 8   2/11
OCEAN-CITY-INLET 1642   44 41  330/ 22/ 31 1008.9R
WACHAPREAGUE VA  1642   47 37  300/  5/ 14 1009.3R
THOMAS POINT MD  1700   38 45  320/ 23/ 26   N/A
GOOSES REEF MD   1700   42 46  340/ 19/ 25 1011.0    2/ 3
COVE POINT MD    1642   42     320/ 16/ 28 1010.9R
SOLOMONS ISLAND  1642   44 46  330/ 16/ 24 1009.4R
BISHOPS HEAD MD  1642   43 37  310/ 20/ 26 1010.1R
PINEY POINT MD   1642          330/ 21/ 23   N/A
POTOMAC MD       1700   45 46  330/ 16/ 21 1009.2    1/ 2
CAMBRIDGE MD     1642   41 41              1010.7R
LEWISETTA VA     1642   44 42  340/ 14/ 19 1010.1R
RAPPAHANNOCK LGT 1642          300/ 19/ 21 1009.9R
STINGRAY PT      1700   46 45  360/ 16/ 17 1009.9    1/ 2
YORK RVR RNG VA  1642   48     310/ 12/ 17 1009.9R
YORKTOWN VA      1642   47 47  320/ 12/ 14 1009.2R
JAMESTOWN VA     1700      43  350/ 12/ 16   N/A     1
DOMINION TERM VA 1636   48     320/ 11/ 13 1009.4R
KIPTOPEKE VA     1642      45  300/ 12/ 14   N/A
CAPE HENRY VA    1642   49     280/ 17/ 21   N/A
WILLOUBY STN VA  1642          290/ 15/ 17 1009.2R
S CRANEY ISL VA  1642   51     290/ 11/ 14 1008.9R
CAPE HENRY BUOY  1700      53                N/A     4/ 4
1ST LANDING BUOY 1700   48 48  310/ 12/ 16 1009.3    1/ 2
CAPE CHARLES BUO 1651      51                N/A     3/ 4
64NM E OF VA BCH 1650   54 61  270/ 23/ 27 1008.5R   7/ 6
DUCK PIER NC     1642   46 52  260/ 12/ 16 1009.1F
44100 DUCK FRF   1615      54                N/A     3/ 3
44056 DUCK FRF   1700      55                N/A     1/ 7
OREGON INLET NC  1642   50 41  270/  9/ 13 1009.7F
HATTERAS NC      1642   48 50  260/ 12/ 15 1010.3S
DIAMOND SHLS NC  1700   56 73  260/ 16/ 19 1010.8
CAPE LOOKOUT NC  1700          260/ 13/ 15 1011.6F
$$




USA.gov is the U.S. government's official web portal to all federal, state and local government web resources and services.